Weather History for Morristown, NJ

Change the Weather History Date:

Sunday, November 4, 2012

  Actual Average Record
Temperature  
Mean Temperature 42 °F -  
Max Temperature 46 °F 59 °F 79 °F (1990)
Min Temperature 37 °F 37 °F 16 °F (1939)
Degree Days  
Heating Degree Days 24    
Moisture  
Dew Point 31 °F    
Average Humidity 68    
Maximum Humidity 81    
Minimum Humidity 53    
Precipitation  
Precipitation 0.00 in - - ()
Sea Level Pressure  
Sea Level Pressure 29.98 in    
Wind  
Wind Speed 6 mph (NW)    
Max Wind Speed 12 mph    
Max Gust Speed 18 mph    
Visibility 10 miles    
Events Snow    
Averages and records for this station are not official NWS values.
T = Trace of Precipitation, MM = Missing Value Source: NWS Daily Summary

Daily Weather History Graph

Daily Weather History Graph

Search for Another Location

Airport:

Trip Planner

Search our weather history database for the weather conditions in past years. The results will help you decide how hot, cold, wet, or windy it might be!

Date:

Astronomy

Nov. 04, 2012 Rise Set
Actual Time 6:32 AM EST 4:49 PM EST
Civil Twilight 6:03 AM EST 5:18 PM EST
Nautical Twilight 5:30 AM EST 5:50 PM EST
Astronomical Twilight 4:58 AM EST 6:22 PM EST
Moon 9:25 PM EST (11/4) 11:14 AM EST (11/4)
Length of Visible Light 11h 14m
Length of Day
10h 17m
Waning Gibbous, 72% of the Moon is Illuminated
Nov 4
Waning Gibbous
Nov 6
Last Quarter
Nov 13
New
Nov 20
First Quarter
Nov 28
Full

Hourly Weather History & Observations

Time (EST) Temp. Windchill Dew Point Humidity Pressure Visibility Wind Dir Wind Speed Gust Speed Precip Events Conditions
12:15 AM 37.4 °F 33.8 °F 30.2 °F 75% 29.97 in 10.0 mi West 4.6 mph - N/A Snow Light Snow
12:35 AM 39.2 °F 35.0 °F 30.2 °F 70% 29.97 in 10.0 mi West 5.8 mph - N/A   Unknown
12:55 AM 39.2 °F 35.9 °F 30.2 °F 70% 29.98 in 10.0 mi NW 4.6 mph - N/A   Unknown
1:15 AM 39.2 °F 35.0 °F 30.2 °F 70% 29.97 in 10.0 mi WNW 5.8 mph - N/A   Unknown
1:35 AM 39.2 °F 34.2 °F 30.2 °F 70% 29.97 in 10.0 mi WNW 6.9 mph - N/A   Unknown
1:55 AM 39.2 °F 35.0 °F 30.2 °F 70% 29.97 in 10.0 mi NW 5.8 mph - N/A   Unknown
1:15 AM 39.2 °F 35.9 °F 30.2 °F 70% 29.97 in 10.0 mi NNW 4.6 mph - N/A   Unknown
1:35 AM 39.2 °F 37.0 °F 30.2 °F 70% 29.97 in 10.0 mi NNW 3.5 mph - N/A   Unknown
1:55 AM 39.2 °F 37.0 °F 30.2 °F 70% 29.97 in 10.0 mi NW 3.5 mph - N/A   Unknown
2:15 AM 39.2 °F 37.0 °F 30.2 °F 70% 29.96 in 10.0 mi NNW 3.5 mph - N/A   Unknown
2:35 AM 39.2 °F - 30.2 °F 70% 29.96 in 10.0 mi Calm Calm - N/A   Unknown
2:55 AM 39.2 °F 35.9 °F 30.2 °F 70% 29.96 in 10.0 mi NW 4.6 mph - N/A   Unknown
3:15 AM 39.2 °F 35.9 °F 30.2 °F 70% 29.96 in 10.0 mi NW 4.6 mph - N/A   Unknown
3:35 AM 39.2 °F 35.0 °F 30.2 °F 70% 29.96 in 10.0 mi WNW 5.8 mph - N/A   Unknown
3:55 AM 39.2 °F 34.2 °F 30.2 °F 70% 29.96 in 10.0 mi NW 6.9 mph - N/A   Unknown
4:15 AM 37.4 °F 31.4 °F 32.0 °F 81% 29.97 in 10.0 mi WNW 8.1 mph - N/A Snow Light Snow
4:35 AM 37.4 °F 33.8 °F 32.0 °F 81% 29.97 in 10.0 mi WNW 4.6 mph - N/A Snow Light Snow
4:55 AM 37.4 °F - 30.2 °F 75% 29.98 in 10.0 mi Calm Calm - N/A Snow Light Snow
5:15 AM 37.4 °F - 30.2 °F 75% 29.98 in 10.0 mi Calm Calm - N/A Snow Light Snow
5:35 AM 37.4 °F 34.9 °F 30.2 °F 75% 29.98 in 10.0 mi NW 3.5 mph - N/A Snow Light Snow
7:45 AM 39.2 °F 33.0 °F 32.0 °F 75% 30.00 in 10.0 mi NNW 9.2 mph - N/A   Clear
8:45 AM 42.8 °F 36.6 °F 32.0 °F 66% 30.00 in 25.0 mi North 11.5 mph - N/A   Clear
10:45 AM 46.4 °F 41.1 °F 33.8 °F 62% 29.98 in 10.0 mi NW 11.5 mph - N/A   Clear
11:45 AM 46.4 °F 42.9 °F 32.0 °F 57% 29.96 in 10.0 mi NW 6.9 mph - N/A   Scattered Clouds
1:45 PM 46.4 °F 41.9 °F 30.2 °F 53% 29.95 in 10.0 mi NW 9.2 mph 18.4 mph N/A   Mostly Cloudy
2:45 PM 46.4 °F 41.9 °F 30.2 °F 53% 29.96 in 10.0 mi North 9.2 mph 16.1 mph N/A   Mostly Cloudy
3:45 PM 44.6 °F 38.8 °F 28.4 °F 53% 29.96 in 10.0 mi NNW 11.5 mph 17.3 mph N/A   Overcast
4:45 PM 44.6 °F 40.7 °F 30.2 °F 57% 29.97 in 10.0 mi NNW 6.9 mph - N/A   Overcast
5:45 PM 42.8 °F 40.1 °F 30.2 °F 61% 29.98 in 10.0 mi NW 4.6 mph - N/A   Scattered Clouds
6:45 PM 42.8 °F 39.3 °F 30.2 °F 61% 29.99 in 10.0 mi North 5.8 mph - N/A   Overcast
7:45 PM 41.0 °F 37.1 °F 32.0 °F 70% 29.99 in 10.0 mi North 5.8 mph - N/A   Overcast
8:45 PM 41.0 °F 35.8 °F 30.2 °F 65% 30.01 in 10.0 mi North 8.1 mph - N/A   Overcast
9:45 PM 41.0 °F 37.1 °F 30.2 °F 65% 30.00 in 10.0 mi NW 5.8 mph 16.1 mph N/A   Overcast
9:55 PM 41.0 °F 36.4 °F 32.0 °F 70% 29.99 in 10.0 mi NNW 6.9 mph - N/A   Unknown
10:15 PM 41.0 °F 34.7 °F 32.0 °F 70% 30.00 in 10.0 mi NNW 10.4 mph - N/A   Unknown
10:35 PM 41.0 °F 39.0 °F 32.0 °F 70% 30.00 in 10.0 mi North 3.5 mph - N/A   Unknown
10:55 PM 39.2 °F 34.2 °F 32.0 °F 75% 30.00 in 10.0 mi NNW 6.9 mph - N/A   Unknown